GW3876 Weather Reports


time (UTC)temp
F
wind
direction
speed
knots
gust
knots
rain 1hr
in
rain 24hr
in
rain mn
in
humidity
%
barometer
mb
20260507040023 56 243 0.0 0.9 0.02 0.33 0.00 93 1008.1
20260507034516 56 284 0.0 3.5 0.01 0.32 0.32 93 1008.1
20260507033021 55 317 0.0 0.9 0.00 0.31 0.31 93 1008.1
20260507031510 55 104 0.0 0.9 0.00 0.31 0.31 93 1008.1
20260507030010 55 81 0.0 0.9 0.00 0.31 0.31 93 1008.3
20260507024510 55 79 0.0 0.9 0.00 0.31 0.31 93 1008.2
20260507023004 55 84 0.0 1.7 0.00 0.31 0.31 93 1008.1
20260507021540 55 214 0.0 1.7 0.00 0.31 0.31 92 1008.3
20260507014522 55 141 0.0 1.7 0.00 0.31 0.31 92 1008.8
20260507013016 55 195 0.0 1.7 0.00 0.31 0.31 92 1008.4
20260507011516 56 120 0.0 1.7 0.00 0.31 0.31 92 1008.3
20260507010018 56 136 0.0 1.7 0.00 0.31 0.31 92 1008.6
20260507004504 56 217 1.7 4.3 0.00 0.31 0.31 92 1008.7
20260507001525 56 158 1.7 5.2 0.00 0.31 0.31 92 1008.7
20260507000022 56 195 0.9 6.1 0.00 0.31 0.31 92 1008.6
20260506233016 56 253 0.0 8.7 0.00 0.31 0.31 92 1008.5
20260506231519 56 236 1.7 5.2 0.00 0.31 0.31 92 1008.3
20260506230012 56 226 0.0 3.5 0.00 0.31 0.31 92 1008.2
20260506224507 56 118 1.7 7.8 0.00 0.31 0.31 92 1008.2
20260506221502 56 107 0.9 5.2 0.05 0.31 0.31 92 1008.0
20260506220003 56 254 2.6 6.1 0.11 0.31 0.31 91 1008.1
20260506214503 56 198 4.3 10.4 0.15 0.31 0.31 91 1008.1
20260506213022 56 150 1.7 8.7 0.16 0.29 0.29 91 1008.1
20260506211512 56 136 3.5 9.6 0.17 0.26 0.26 90 1008.3
20260506210010 57 221 3.5 7.0 0.12 0.20 0.20 90 1008.6
20260506204507 57 219 2.6 7.8 0.08 0.16 0.16 89 1008.8
20260506203013 58 113 1.7 6.1 0.05 0.13 0.13 89 1008.7
20260506200004 58 222 1.7 9.6 0.02 0.08 0.08 88 1008.7
20260506194519 58 206 1.7 10.4 0.04 0.08 0.08 87 1008.9
20260506193018 57 223 4.3 11.3 0.06 0.08 0.08 88 1009.3
20260506191512 57 235 5.2 16.5 0.07 0.08 0.08 88 1009.5
20260506190008 57 135 2.6 5.2 0.06 0.06 0.06 88 1009.3
20260506184509 57 150 4.3 10.4 0.04 0.04 0.04 86 1009.7
20260506183005 58 133 1.7 7.0 0.02 0.02 0.02 85 1009.7
20260506181506 59 276 4.3 10.4 0.01 0.01 0.01 82 1010.1
20260506180008 60 171 6.1 10.4 0.00 0.00 0.00 79 1010.5
20260506174519 61 153 6.1 13.9 0.00 0.00 0.00 77 1010.6
20260506173016 61 285 2.6 13.0 0.00 0.00 0.00 77 1010.8
20260506171525 61 207 4.3 18.2 0.00 0.00 0.00 77 1010.8
20260506170002 61 200 8.7 14.8 0.00 0.00 0.00 77 1011.4
20260506164502 61 158 3.5 17.4 0.00 0.00 0.00 76 1011.0
20260506163003 62 147 5.2 13.9 0.00 0.00 0.00 74 1011.2
20260506161503 63 91 2.6 9.6 0.00 0.00 0.00 73 1011.5
20260506160004 63 252 5.2 15.6 0.00 0.00 0.00 74 1012.0
20260506154503 63 202 5.2 17.4 0.00 0.00 0.00 73 1011.8
20260506153002 64 248 7.0 12.2 0.00 0.00 0.00 73 1012.0
20260506151503 64 246 7.8 14.8 0.00 0.00 0.00 71 1011.8
20260506150002 64 162 5.2 20.9 0.00 0.00 0.00 73 1011.9
20260506144502 65 247 2.6 13.9 0.00 0.00 0.00 73 1012.0
20260506143006 63 207 3.5 15.6 0.00 0.00 0.00 74 1012.2
20260506141503 63 145 2.6 13.9 0.00 0.00 0.00 75 1012.2
20260506140007 62 124 3.5 12.2 0.00 0.00 0.00 76 1012.2
20260506134501 62 227 3.5 14.8 0.00 0.00 0.00 76 1011.9
20260506133004 63 122 4.3 10.4 0.00 0.00 0.00 75 1011.8
20260506131503 63 243 3.5 11.3 0.00 0.00 0.00 74 1012.1
20260506130005 62 144 3.5 15.6 0.00 0.00 0.00 76 1012.2
20260506124504 62 192 3.5 9.6 0.00 0.00 0.00 76 1012.3
20260506121505 61 236 7.8 14.8 0.00 0.00 0.00 77 1012.4
20260506120003 60 207 3.5 7.8 0.00 0.00 0.00 79 1012.4
20260506114503 59 217 0.9 10.4 0.00 0.00 0.00 81 1012.4
20260506113005 59 192 3.5 9.6 0.00 0.00 0.00 82 1012.4
20260506110006 57 162 2.6 4.3 0.00 0.00 0.00 84 1012.5
20260506104504 57 133 2.6 6.1 0.00 0.00 0.00 85 1012.4
20260506103013 57 156 1.7 10.4 0.00 0.00 0.00 85 1012.3
20260506101505 57 167 3.5 8.7 0.00 0.00 0.00 85 1012.2
20260506100006 57 123 2.6 7.0 0.00 0.00 0.00 85 1012.1
20260506094510 57 221 2.6 7.0 0.00 0.00 0.00 85 1012.3
20260506093008 57 129 1.7 9.6 0.00 0.00 0.00 85 1012.1
20260506091508 57 162 0.9 7.0 0.00 0.00 0.00 84 1012.1
20260506090008 57 197 0.9 4.3 0.00 0.00 0.00 84 1012.4
20260506084515 58 218 0.9 10.4 0.00 0.00 0.00 83 1012.5
20260506083005 58 285 2.6 7.0 0.00 0.00 0.00 83 1012.5
20260506081509 58 177 2.6 7.8 0.00 0.00 0.00 82 1012.5
20260506073003 58 212 3.5 10.4 0.00 0.00 0.00 82 1012.7
20260506071503 58 181 0.9 5.2 0.00 0.00 0.00 82 1012.7
20260506061512 58 197 0.9 6.1 0.00 0.00 0.00 81 1012.8
20260506044502 59 277 2.6 7.0 0.00 0.00 0.00 77 1013.3
20260506043012 59 195 0.9 8.7 0.00 0.00 0.00 76 1013.3
20260506041523 60 210 3.5 13.0 0.00 0.00 0.00 75 1013.3